When you browse on this site, cookies collect data to enhance your experience and personalize the content and advertising you see.
Visit our Privacy Policy to learn more. By continuing to use the site, you agree to this use of cookies and data.
  • In Romania
  • List of Countries
  • For 7 days
  • Water Temperature
  • Weather Map
  • Weather Widgets
  • user-avatar
    Login

    Hourly Weather Knighton

    Today, 12 November, Tuesday

    Time Temperature Precipitation Wind Pressure Humidity
    00:00 0°C° 0 mm 5 mps 720 mmHg 86%
    01:00 -1°C° 0.1 mm 6 mps 720 mmHg 85%
    02:00 -1°C° 0.1 mm 6 mps 720 mmHg 84%
    03:00 -1°C° 0.1 mm 6 mps 720 mmHg 83%
    04:00 -1°C° 0 mm 7 mps 719 mmHg 83%
    05:00 -1°C° 0 mm 7 mps 719 mmHg 82%
    06:00 -1°C° 0 mm 7 mps 719 mmHg 82%
    07:00 0°C° 0 mm 8 mps 719 mmHg 82%
    08:00 0°C° 0 mm 8 mps 718 mmHg 83%
    09:00 0°C° 0 mm 9 mps 718 mmHg 83%
    10:00 +1°C° 0.6 mm 9 mps 718 mmHg 85%
    11:00 +2°C° 0.6 mm 9 mps 718 mmHg 87%
    12:00 +2°C° 0.6 mm 9 mps 718 mmHg 89%
    13:00 +2°C° 0.7 mm 8 mps 719 mmHg 89%
    14:00 +4°C° 0.7 mm 7 mps 719 mmHg 88%
    15:00 +4°C° 0.7 mm 6 mps 719 mmHg 88%
    16:00 +3°C° 0.1 mm 6 mps 719 mmHg 89%
    17:00 +3°C° 0.1 mm 6 mps 720 mmHg 90%
    18:00 +3°C° 0.1 mm 5 mps 721 mmHg 91%
    19:00 +2°C° 0.1 mm 5 mps 721 mmHg 91%
    20:00 +3°C° 0.1 mm 4 mps 721 mmHg 91%
    21:00 +3°C° 0.1 mm 4 mps 722 mmHg 91%
    22:00 +1°C° 0 mm 4 mps 722 mmHg 92%
    23:00 +2°C° 0 mm 3 mps 722 mmHg 92%

    Tomorrow, 13 November, Wednesday

    Time Temperature Precipitation Wind Pressure Humidity
    00:00 +1°C° 0 mm 3 mps 722 mmHg 93%
    01:00 +1°C° 0 mm 3 mps 722 mmHg 92%
    02:00 0°C° 0 mm 4 mps 721 mmHg 92%
    03:00 +1°C° 0 mm 4 mps 721 mmHg 92%
    04:00 +1°C° 0 mm 3 mps 721 mmHg 92%
    05:00 +1°C° 0 mm 3 mps 721 mmHg 92%
    06:00 0°C° 0 mm 3 mps 721 mmHg 92%
    07:00 +1°C° 0 mm 3 mps 720 mmHg 91%
    08:00 +1°C° 0 mm 3 mps 720 mmHg 90%
    09:00 +1°C° 0 mm 3 mps 720 mmHg 89%
    10:00 +2°C° 0 mm 3 mps 719 mmHg 86%
    11:00 +3°C° 0 mm 3 mps 718 mmHg 82%
    12:00 +4°C° 0 mm 3 mps 718 mmHg 79%
    13:00 +3°C° 0.2 mm 4 mps 716 mmHg 83%
    14:00 +3°C° 0.2 mm 4 mps 715 mmHg 87%
    15:00 +1°C° 0.2 mm 5 mps 714 mmHg 91%
    16:00 +1°C° 0.4 mm 6 mps 713 mmHg 93%
    17:00 +1°C° 0.4 mm 6 mps 712 mmHg 94%
    18:00 0°C° 0.4 mm 7 mps 711 mmHg 96%
    19:00 0°C° 1.6 mm 7 mps 711 mmHg 96%
    20:00 0°C° 1.6 mm 7 mps 711 mmHg 95%
    21:00 0°C° 1.6 mm 7 mps 711 mmHg 95%
    22:00 +1°C° 0.9 mm 5 mps 711 mmHg 95%
    23:00 0°C° 0.9 mm 4 mps 711 mmHg 96%

    Day after tomorrow, 14 November, Thursday

    Time Temperature Precipitation Wind Pressure Humidity
    00:00 +2°C° 0.9 mm 2 mps 711 mmHg 96%
    01:00 +1°C° 1.5 mm 3 mps 712 mmHg 96%
    02:00 0°C° 1.5 mm 4 mps 712 mmHg 96%
    03:00 0°C° 1.5 mm 5 mps 713 mmHg 96%
    04:00 0°C° 0.9 mm 5 mps 713 mmHg 95%
    05:00 -1°C° 0.9 mm 6 mps 714 mmHg 94%
    06:00 -1°C° 0.9 mm 6 mps 715 mmHg 93%
    07:00 -1°C° 0.4 mm 6 mps 715 mmHg 93%
    08:00 -1°C° 0.4 mm 7 mps 716 mmHg 94%
    09:00 -1°C° 0.4 mm 7 mps 716 mmHg 95%
    10:00 -1°C° 1.1 mm 7 mps 717 mmHg 95%
    11:00 -1°C° 1.1 mm 8 mps 717 mmHg 95%
    12:00 -1°C° 1.1 mm 8 mps 718 mmHg 95%
    13:00 -1°C° 1.4 mm 8 mps 718 mmHg 96%
    14:00 -1°C° 1.4 mm 8 mps 718 mmHg 96%
    15:00 -1°C° 1.4 mm 7 mps 718 mmHg 96%
    16:00 -1°C° 1 mm 7 mps 719 mmHg 96%
    17:00 -1°C° 1 mm 6 mps 720 mmHg 97%
    18:00 0°C° 1 mm 5 mps 720 mmHg 97%
    19:00 0°C° 0.5 mm 4 mps 721 mmHg 97%
    20:00 +1°C° 0.5 mm 3 mps 721 mmHg 97%
    21:00 +2°C° 0.5 mm 2 mps 722 mmHg 97%
    22:00 +2°C° 0.3 mm 2 mps 722 mmHg 97%
    23:00 +2°C° 0.3 mm 2 mps 723 mmHg 97%

    15 November, Friday

    Time Temperature Precipitation Wind Pressure Humidity
    00:00 +2°C° 0.3 mm 2 mps 723 mmHg 97%
    01:00 +2°C° 0 mm 2 mps 723 mmHg 97%
    02:00 +1°C° 0 mm 2 mps 724 mmHg 97%
    03:00 -1°C° 0 mm 2 mps 724 mmHg 97%
    04:00 -1°C° 0 mm 3 mps 724 mmHg 97%
    05:00 -1°C° 0 mm 3 mps 725 mmHg 97%
    06:00 -1°C° 0 mm 3 mps 725 mmHg 97%
    07:00 0°C° 0 mm 3 mps 726 mmHg 96%
    08:00 +1°C° 0 mm 3 mps 726 mmHg 95%
    09:00 0°C° 0 mm 4 mps 727 mmHg 95%
    10:00 +1°C° 0 mm 4 mps 727 mmHg 93%
    11:00 +2°C° 0 mm 5 mps 727 mmHg 91%
    12:00 +3°C° 0 mm 6 mps 726 mmHg 89%
    13:00 +3°C° 0.1 mm 5 mps 726 mmHg 89%
    14:00 +3°C° 0.1 mm 5 mps 726 mmHg 89%
    15:00 +3°C° 0.1 mm 5 mps 725 mmHg 90%
    16:00 +2°C° 0.1 mm 5 mps 725 mmHg 90%
    17:00 +2°C° 0.1 mm 5 mps 725 mmHg 91%
    18:00 +1°C° 0.1 mm 5 mps 725 mmHg 92%
    19:00 +1°C° 0.1 mm 6 mps 724 mmHg 91%
    20:00 +1°C° 0.1 mm 6 mps 724 mmHg 91%
    21:00 0°C° 0.1 mm 7 mps 724 mmHg 90%
    22:00 +2°C° 0.5 mm 7 mps 724 mmHg 91%
    23:00 +2°C° 0.5 mm 6 mps 724 mmHg 92%

    16 November, Saturday

    Time Temperature Precipitation Wind Pressure Humidity
    00:00 +2°C° 0.5 mm 6 mps 724 mmHg 92%
    01:00 +2°C° 0.3 mm 5 mps 724 mmHg 93%
    02:00 +2°C° 0.3 mm 5 mps 724 mmHg 93%
    03:00 +3°C° 0.3 mm 4 mps 724 mmHg 94%
    04:00 +3°C° 0.3 mm 4 mps 724 mmHg 94%
    05:00 +3°C° 0.3 mm 4 mps 724 mmHg 94%
    06:00 +3°C° 0.3 mm 4 mps 724 mmHg 94%
    07:00 +3°C° 0.4 mm 3 mps 724 mmHg 94%
    08:00 +3°C° 0.4 mm 3 mps 724 mmHg 95%
    09:00 +4°C° 0.4 mm 2 mps 724 mmHg 95%
    10:00 +5°C° 0.1 mm 2 mps 724 mmHg 95%
    11:00 +5°C° 0.1 mm 2 mps 724 mmHg 94%
    12:00 +6°C° 0.1 mm 1 mps 725 mmHg 94%
    13:00 +6°C° 0.3 mm 1 mps 724 mmHg 95%
    14:00 +6°C° 0.3 mm 1 mps 724 mmHg 95%
    15:00 +6°C° 0.3 mm 1 mps 724 mmHg 96%
    16:00 +6°C° 0.2 mm 1 mps 724 mmHg 96%
    17:00 +6°C° 0.2 mm 1 mps 725 mmHg 97%
    18:00 +5°C° 0.2 mm 1 mps 725 mmHg 97%
    19:00 +5°C° 0.1 mm 1 mps 725 mmHg 97%
    20:00 +5°C° 0.1 mm 1 mps 725 mmHg 97%
    21:00 +5°C° 0.1 mm 1 mps 726 mmHg 98%
    22:00 +5°C° 0.3 mm 1 mps 726 mmHg 98%
    23:00 +5°C° 0.3 mm 1 mps 726 mmHg 98%

    17 November, Sunday

    Time Temperature Precipitation Wind Pressure Humidity
    00:00 +5°C° 0.3 mm 1 mps 726 mmHg 98%
    01:00 +5°C° 0.2 mm 1 mps 726 mmHg 98%
    02:00 +5°C° 0.2 mm 1 mps 726 mmHg 98%
    03:00 +5°C° 0.2 mm 1 mps 726 mmHg 97%
    04:00 +5°C° 0.1 mm 1 mps 727 mmHg 97%
    05:00 +5°C° 0.1 mm 1 mps 727 mmHg 97%
    06:00 +5°C° 0.1 mm 1 mps 727 mmHg 96%
    07:00 +5°C° 0.1 mm 1 mps 727 mmHg 96%
    08:00 +5°C° 0.1 mm 1 mps 728 mmHg 95%
    09:00 +5°C° 0.1 mm 1 mps 728 mmHg 95%
    10:00 +5°C° 0.1 mm 1 mps 728 mmHg 94%
    11:00 +5°C° 0.1 mm 1 mps 728 mmHg 93%
    12:00 +6°C° 0.1 mm 1 mps 729 mmHg 92%
    13:00 +5°C° 0.1 mm 2 mps 728 mmHg 92%
    14:00 +5°C° 0.1 mm 2 mps 728 mmHg 92%
    15:00 +4°C° 0.1 mm 3 mps 728 mmHg 93%
    16:00 +5°C° 0 mm 2 mps 728 mmHg 93%
    17:00 +4°C° 0 mm 2 mps 728 mmHg 94%
    18:00 +4°C° 0 mm 2 mps 728 mmHg 94%
    19:00 +3°C° 0 mm 2 mps 728 mmHg 94%
    20:00 +3°C° 0 mm 2 mps 728 mmHg 94%
    21:00 +2°C° 0 mm 2 mps 728 mmHg 94%
    22:00 +2°C° 0 mm 2 mps 727 mmHg 94%
    23:00 +2°C° 0 mm 2 mps 727 mmHg 94%
    Show more